Williston, VT

1:11 AM EST on January 22, 2017 (GMT -0500)
Burlington International

Weather History for KBTV - June, 2013

Change the Weather History Date:

Tuesday, June 4, 2013

  Actual Average Record
Temperature  
Mean Temperature 59 °F 62 °F  
Max Temperature 67 °F 73 °F 92 °F (1919)
Min Temperature 51 °F 52 °F 34 °F (1910)
Degree Days  
Heating Degree Days 6 4  
Month to date heating degree days 8 19  
Since 1 June heating degree days 8 19  
Since 1 July heating degree days 6646 7380  
Cooling Degree Days 0 2  
Month to date cooling degree days 24 6  
Year to date cooling degree days 71 25  
Since 1 June cooling degree days 24 6  
Growing Degree Days 8 (Base 50)    
Moisture  
Dew Point 41 °F    
Average Humidity 57    
Maximum Humidity 72    
Minimum Humidity 42    
Precipitation  
Precipitation 0.00 in 0.12 in 0.90 in (1973)
Month to date precipitation 1.19 0.49  
Year to date precipitation 16.46 12.80  
Snow  
Snow 0.00 in 0.00 in 0.00 in (2002)
Month to date snowfall 0.0 0.0  
Since 1 June snowfall 0.0 0.0  
Since 1 July snowfall 82.9 81.2  
Snow Depth 0.00 in    
Sea Level Pressure  
Sea Level Pressure 29.99 in    
Wind  
Wind Speed 10 mph (NW)    
Max Wind Speed 22 mph    
Max Gust Speed 30 mph    
Visibility 10 miles    
Events      
T = Trace of Precipitation, MM = Missing Value Source: NWS Daily Summary

Daily Weather History Graph

Daily Weather History Graph

Search for Another Location

Airport or City:

Trip Planner

Search our weather history database for the weather conditions in past years. The results will help you decide how hot, cold, wet, or windy it might be!

Date:

Astronomy

Jun. 04, 2013 Rise Set
Actual Time 5:09 AM EDT 8:32 PM EDT
Civil Twilight 4:33 AM EDT 9:08 PM EDT
Nautical Twilight 3:46 AM EDT 9:56 PM EDT
Astronomical Twilight 2:47 AM EDT 10:55 PM EDT
Moon 2:46 AM EDT (6/4) 4:52 PM EDT (6/4)
Length of Visible Light 16h 35m
Length of Day
15h 23m
Waning Crescent, 14% of the Moon is Illuminated
Jun 4
Waning Crescent
Jun 8
New
Jun 16
First Quarter
Jun 23
Full
Jun 30
Last Quarter

Hourly Weather History & Observations

Time (EDT) Temp. Dew Point Humidity Pressure Visibility Wind Dir Wind Speed Gust Speed Precip Events Conditions
12:54 AM 55.9 °F 37.9 °F 51% 29.88 in 10.0 mi SW 5.8 mph - N/A   Clear
1:54 AM 55.0 °F 37.9 °F 53% 29.87 in 10.0 mi West 11.5 mph 20.7 mph N/A   Clear
2:54 AM 54.0 °F 39.0 °F 57% 29.88 in 10.0 mi West 12.7 mph 20.7 mph N/A   Clear
3:54 AM 53.1 °F 39.0 °F 59% 29.89 in 10.0 mi West 11.5 mph 17.3 mph N/A   Clear
4:54 AM 52.0 °F 39.9 °F 63% 29.90 in 10.0 mi West 8.1 mph - N/A   Clear
5:54 AM 51.1 °F 41.0 °F 68% 29.92 in 10.0 mi SW 8.1 mph - N/A   Scattered Clouds
6:54 AM 54.0 °F 41.0 °F 62% 29.93 in 10.0 mi West 12.7 mph 18.4 mph N/A   Partly Cloudy
7:54 AM 54.0 °F 39.9 °F 59% 29.94 in 10.0 mi WNW 12.7 mph 21.9 mph N/A   Mostly Cloudy
8:54 AM 55.0 °F 39.0 °F 55% 29.94 in 10.0 mi NNW 16.1 mph 21.9 mph N/A   Scattered Clouds
9:54 AM 57.9 °F 39.9 °F 51% 29.97 in 10.0 mi NNW 20.7 mph 24.2 mph N/A   Scattered Clouds
10:54 AM 59.0 °F 41.0 °F 51% 29.98 in 10.0 mi NNW 19.6 mph 26.5 mph N/A   Mostly Cloudy
11:54 AM 60.1 °F 42.1 °F 51% 30.01 in 10.0 mi North 15.0 mph 20.7 mph N/A   Mostly Cloudy
12:54 PM 61.0 °F 41.0 °F 48% 30.02 in 10.0 mi NNW 15.0 mph 26.5 mph N/A   Mostly Cloudy
1:54 PM 63.0 °F 41.0 °F 45% 30.01 in 10.0 mi North 13.8 mph 21.9 mph N/A   Scattered Clouds
2:54 PM 64.0 °F 41.0 °F 43% 30.01 in 10.0 mi NNE 11.5 mph 20.7 mph N/A   Partly Cloudy
3:54 PM 64.9 °F 42.1 °F 43% 30.01 in 10.0 mi North 11.5 mph 16.1 mph N/A   Partly Cloudy
4:54 PM 66.9 °F 43.0 °F 42% 30.01 in 10.0 mi NNW 15.0 mph 18.4 mph N/A   Partly Cloudy
5:54 PM 64.9 °F 43.0 °F 45% 30.03 in 10.0 mi North 13.8 mph 18.4 mph N/A   Scattered Clouds
6:54 PM 63.0 °F 44.1 °F 50% 30.05 in 10.0 mi North 6.9 mph - N/A   Mostly Cloudy
7:54 PM 62.1 °F 43.0 °F 50% 30.07 in 10.0 mi North 9.2 mph - N/A   Partly Cloudy
8:54 PM 59.0 °F 44.1 °F 58% 30.09 in 10.0 mi North 4.6 mph - N/A   Clear
9:54 PM 57.9 °F 44.1 °F 60% 30.10 in 10.0 mi Calm Calm - N/A   Clear
10:54 PM 55.0 °F 46.0 °F 72% 30.11 in 10.0 mi Calm Calm - N/A   Scattered Clouds
11:54 PM 54.0 °F 45.0 °F 72% 30.12 in 10.0 mi Calm Calm - N/A   Mostly Cloudy